Location: Bothwell
(41.7170°N, 112.2589°W)
Time: 19:04:17
(UTC+00:00)

ACS3 Solar Sail - Pass Details

Date: 27 April 2026
Orbit: 894 x 947 km, 97.2° (Epoch: 12 May)

Event Time Altitude Azimuth Distance (km) Brightness Sun altitude
Rises 07:12:20 0° 27° (NNE) 3,568 5.5 -34.3°
Reaches altitude 10° 07:15:35 10° 46° (NE) 2,631 4.5 -34.4°
Enters shadow 07:18:20 18° 73° (ENE) 2,141 3.7 -34.4°
